Tabriz International Airport
OITT : now visible

Airfield :











YOU CAN JOIN US ON...

 
LOGIN :

Register | Disclaimer

   EN    FR    IT 

 









Legend :    VFR   Marginal VFR   IFR   Intensive IFR   Very Intensive IFR
Visi :
Ceiling :
>= 8 km
>= 3000ft
5 to 8 km
1000 to 3000 ft
1500m to 5 km
500 to 1000 ft
800 to 1500m
200 to 500 ft
< 800m
< 200 ft
Symbols :   Thunderstorms  Fog  Heavy snow  Heavy precipitations  Wind > 20 kt







- Airport Elevation : 4459 ft
- IATA code : TBZ


OITT - Tabriz International

CURRENT METAR :
  • 162300Z 00000KT 9999 FEW040 21/07 Q1014 A2995

EXPIRED METARs :
  • 162230Z 00000KT 9999 FEW040 21/07 Q1014 A2996
  • 162200Z 26004KT 9999 FEW040 21/07 Q1014 A2996
  • 162130Z VRB02KT 9999 FEW040 21/06 Q1014 A2997
  • 162100Z 10006KT 9999 FEW040 23/06 Q1014 A2997
  • 162030Z 13004KT 9999 FEW040 23/06 Q1014 A2997

TAF TAF OITT
Valid from the 16 at 18:00 until the 18 at 00:00 UTC


161745Z 1618/1724 08008KT 9999 FEW030
BECMG 1706/1708 FEW035TCU SCT040
TEMPO 1709/1714 28018KT 7000 TS/SHRA FEW030CB SCT035 SCT100
OIIX FIR / Asia



MET'MAP, your aeronautical weather chart ! - Copyright ORBIFLY December 2007 - Disclaimer

ORBIFLY MET'MAP TEAM :

Programming & Development : Alexandra Zaïnal
Concept & Development : Baudouin d'Aumeries
Co-Development & Prog : Marc-Olivier Méhu
Technical & hardware support : Manuel Goepfert

Contact : metmap@orbifly.com




SOURCES & CREDITS :

   NOAA       Earth
Advisory